#datetime,building,power
2023-10-09T00:00:00,mfh,34.59
2023-10-09T00:01:00,mfh,33.77
2023-10-09T00:02:00,mfh,33.86
2023-10-09T00:03:00,mfh,33.83
2023-10-09T00:04:00,mfh,34.79
2023-10-09T00:05:00,mfh,35.14
2023-10-09T00:06:00,mfh,34.64
2023-10-09T00:07:00,mfh,34.66
2023-10-09T00:08:00,mfh,34.73
2023-10-09T00:09:00,mfh,34.36
2023-10-09T00:10:00,mfh,34.37
2023-10-09T00:11:00,mfh,34.60
2023-10-09T00:12:00,mfh,33.88
2023-10-09T00:13:00,mfh,33.84
2023-10-09T00:14:00,mfh,33.83
2023-10-09T00:15:00,mfh,34.63
2023-10-09T00:16:00,mfh,34.51
2023-10-09T00:17:00,mfh,34.50
2023-10-09T00:18:00,mfh,34.46
2023-10-09T00:19:00,mfh,34.60
2023-10-09T00:20:00,mfh,34.74
2023-10-09T00:21:00,mfh,33.97
2023-10-09T00:22:00,mfh,35.43
2023-10-09T00:23:00,mfh,35.43
2023-10-09T00:24:00,mfh,36.10
2023-10-09T00:25:00,mfh,36.13
2023-10-09T00:26:00,mfh,36.01
2023-10-09T00:27:00,mfh,36.36
2023-10-09T00:28:00,mfh,36.26
2023-10-09T00:29:00,mfh,36.20
2023-10-09T00:30:00,mfh,36.26
2023-10-09T00:31:00,mfh,33.92
2023-10-09T00:32:00,mfh,33.86
2023-10-09T00:33:00,mfh,33.85
2023-10-09T00:34:00,mfh,35.51
2023-10-09T00:35:00,mfh,34.48
2023-10-09T00:36:00,mfh,34.44
2023-10-09T00:37:00,mfh,34.45
2023-10-09T00:38:00,mfh,34.48
2023-10-09T00:39:00,mfh,34.51
2023-10-09T00:40:00,mfh,34.51
2023-10-09T00:41:00,mfh,33.86
2023-10-09T00:42:00,mfh,34.43
2023-10-09T00:43:00,mfh,34.56
2023-10-09T00:44:00,mfh,34.58
2023-10-09T00:45:00,mfh,34.66
2023-10-09T00:46:00,mfh,34.74
2023-10-09T00:47:00,mfh,34.51
2023-10-09T00:48:00,mfh,34.95
2023-10-09T00:49:00,mfh,35.55
2023-10-09T00:50:00,mfh,35.49
2023-10-09T00:51:00,mfh,34.79
2023-10-09T00:52:00,mfh,34.03
2023-10-09T00:53:00,mfh,34.31
2023-10-09T00:54:00,mfh,34.61
2023-10-09T00:55:00,mfh,34.50
2023-10-09T00:56:00,mfh,34.50
2023-10-09T00:57:00,mfh,34.55
2023-10-09T00:58:00,mfh,34.70
2023-10-09T00:59:00,mfh,34.94
2023-10-09T01:00:00,mfh,33.93
2023-10-09T01:01:00,mfh,37.19
2023-10-09T01:02:00,mfh,37.26
2023-10-09T01:03:00,mfh,41.98
2023-10-09T01:04:00,mfh,42.18
2023-10-09T01:05:00,mfh,42.54
2023-10-09T01:06:00,mfh,42.04
2023-10-09T01:07:00,mfh,42.23
2023-10-09T01:08:00,mfh,41.95
2023-10-09T01:09:00,mfh,42.05
2023-10-09T01:10:00,mfh,41.44
2023-10-09T01:11:00,mfh,41.37
2023-10-09T01:12:00,mfh,41.41
2023-10-09T01:13:00,mfh,41.99
2023-10-09T01:14:00,mfh,42.04
2023-10-09T01:15:00,mfh,42.48
2023-10-09T01:16:00,mfh,43.07
2023-10-09T01:17:00,mfh,42.10
2023-10-09T01:18:00,mfh,37.87
2023-10-09T01:19:00,mfh,37.95
2023-10-09T01:20:00,mfh,35.75
2023-10-09T01:21:00,mfh,34.87
2023-10-09T01:22:00,mfh,34.87
2023-10-09T01:23:00,mfh,35.49
2023-10-09T01:24:00,mfh,35.60
2023-10-09T01:25:00,mfh,34.64
2023-10-09T01:26:00,mfh,34.46
2023-10-09T01:27:00,mfh,35.21
2023-10-09T01:28:00,mfh,34.72
2023-10-09T01:29:00,mfh,33.75
2023-10-09T01:30:00,mfh,33.72
2023-10-09T01:31:00,mfh,33.78
2023-10-09T01:32:00,mfh,34.39
2023-10-09T01:33:00,mfh,34.48
2023-10-09T01:34:00,mfh,34.54
2023-10-09T01:35:00,mfh,34.70
2023-10-09T01:36:00,mfh,34.82
2023-10-09T01:37:00,mfh,34.79
2023-10-09T01:38:00,mfh,34.83
2023-10-09T01:39:00,mfh,34.66
2023-10-09T01:40:00,mfh,34.10
2023-10-09T01:41:00,mfh,34.08
2023-10-09T01:42:00,mfh,34.63
2023-10-09T01:43:00,mfh,34.62
2023-10-09T01:44:00,mfh,35.21
2023-10-09T01:45:00,mfh,34.50
2023-10-09T01:46:00,mfh,34.62
2023-10-09T01:47:00,mfh,34.80
2023-10-09T01:48:00,mfh,34.65
2023-10-09T01:49:00,mfh,34.11
2023-10-09T01:50:00,mfh,34.10
2023-10-09T01:51:00,mfh,34.08
2023-10-09T01:52:00,mfh,35.46
2023-10-09T01:53:00,mfh,34.90
2023-10-09T01:54:00,mfh,34.31
2023-10-09T01:55:00,mfh,34.36
2023-10-09T01:56:00,mfh,34.40
2023-10-09T01:57:00,mfh,34.41
2023-10-09T01:58:00,mfh,33.89
2023-10-09T01:59:00,mfh,33.76
2023-10-09T02:00:00,mfh,33.71
2023-10-09T02:01:00,mfh,34.30
2023-10-09T02:02:00,mfh,34.39
2023-10-09T02:03:00,mfh,34.36
2023-10-09T02:04:00,mfh,34.38
2023-10-09T02:05:00,mfh,34.29
2023-10-09T02:06:00,mfh,34.32
2023-10-09T02:07:00,mfh,34.33
2023-10-09T02:08:00,mfh,33.68
2023-10-09T02:09:00,mfh,33.98
2023-10-09T02:10:00,mfh,34.09
2023-10-09T02:11:00,mfh,34.50
2023-10-09T02:12:00,mfh,34.38
2023-10-09T02:13:00,mfh,34.51
2023-10-09T02:14:00,mfh,34.51
2023-10-09T02:15:00,mfh,34.62
2023-10-09T02:16:00,mfh,34.54
2023-10-09T02:17:00,mfh,33.83
2023-10-09T02:18:00,mfh,33.70
2023-10-09T02:19:00,mfh,33.97
2023-10-09T02:20:00,mfh,34.69
2023-10-09T02:21:00,mfh,35.43
2023-10-09T02:22:00,mfh,34.62
2023-10-09T02:23:00,mfh,34.52
2023-10-09T02:24:00,mfh,35.31
2023-10-09T02:25:00,mfh,34.65
2023-10-09T02:26:00,mfh,34.59
2023-10-09T02:27:00,mfh,34.40
2023-10-09T02:28:00,mfh,34.35
2023-10-09T02:29:00,mfh,34.15
2023-10-09T02:30:00,mfh,35.53
2023-10-09T02:31:00,mfh,35.03
2023-10-09T02:32:00,mfh,35.00
2023-10-09T02:33:00,mfh,35.23
2023-10-09T02:34:00,mfh,34.72
2023-10-09T02:35:00,mfh,34.91
2023-10-09T02:36:00,mfh,35.30
2023-10-09T02:37:00,mfh,34.25
2023-10-09T02:38:00,mfh,34.65
2023-10-09T02:39:00,mfh,34.28
2023-10-09T02:40:00,mfh,34.55
2023-10-09T02:41:00,mfh,34.58
2023-10-09T02:42:00,mfh,34.58
2023-10-09T02:43:00,mfh,34.54
2023-10-09T02:44:00,mfh,35.60
2023-10-09T02:45:00,mfh,34.52
2023-10-09T02:46:00,mfh,34.06
2023-10-09T02:47:00,mfh,34.64
2023-10-09T02:48:00,mfh,34.98
2023-10-09T02:49:00,mfh,34.86
2023-10-09T02:50:00,mfh,35.11
2023-10-09T02:51:00,mfh,35.02
2023-10-09T02:52:00,mfh,34.83
2023-10-09T02:53:00,mfh,34.95
2023-10-09T02:54:00,mfh,34.86
2023-10-09T02:55:00,mfh,34.15
2023-10-09T02:56:00,mfh,33.97
2023-10-09T02:57:00,mfh,34.08
2023-10-09T02:58:00,mfh,34.15
2023-10-09T02:59:00,mfh,34.74
2023-10-09T03:00:00,mfh,34.87
2023-10-09T03:01:00,mfh,34.82
2023-10-09T03:02:00,mfh,34.58
2023-10-09T03:03:00,mfh,35.21
2023-10-09T03:04:00,mfh,34.02
2023-10-09T03:05:00,mfh,34.23
2023-10-09T03:06:00,mfh,34.37
2023-10-09T03:07:00,mfh,34.19
2023-10-09T03:08:00,mfh,34.80
2023-10-09T03:09:00,mfh,34.78
2023-10-09T03:10:00,mfh,34.72
2023-10-09T03:11:00,mfh,34.80
2023-10-09T03:12:00,mfh,34.78
2023-10-09T03:13:00,mfh,34.74
2023-10-09T03:14:00,mfh,34.00
2023-10-09T03:15:00,mfh,33.88
2023-10-09T03:16:00,mfh,34.47
2023-10-09T03:17:00,mfh,34.78
2023-10-09T03:18:00,mfh,34.62
2023-10-09T03:19:00,mfh,41.57
2023-10-09T03:20:00,mfh,41.38
2023-10-09T03:21:00,mfh,42.32
2023-10-09T03:22:00,mfh,41.98
2023-10-09T03:23:00,mfh,41.52
2023-10-09T03:24:00,mfh,41.54
2023-10-09T03:25:00,mfh,41.37
2023-10-09T03:26:00,mfh,41.13
2023-10-09T03:27:00,mfh,41.82
2023-10-09T03:28:00,mfh,41.77
2023-10-09T03:29:00,mfh,41.51
2023-10-09T03:30:00,mfh,41.44
2023-10-09T03:31:00,mfh,41.73
2023-10-09T03:32:00,mfh,41.79
2023-10-09T03:33:00,mfh,41.07
2023-10-09T03:34:00,mfh,41.26
2023-10-09T03:35:00,mfh,41.26
2023-10-09T03:36:00,mfh,41.86
2023-10-09T03:37:00,mfh,41.95
2023-10-09T03:38:00,mfh,42.52
2023-10-09T03:39:00,mfh,42.24
2023-10-09T03:40:00,mfh,42.28
2023-10-09T03:41:00,mfh,42.06
2023-10-09T03:42:00,mfh,41.40
2023-10-09T03:43:00,mfh,41.82
2023-10-09T03:44:00,mfh,41.79
2023-10-09T03:45:00,mfh,42.34
2023-10-09T03:46:00,mfh,42.43
2023-10-09T03:47:00,mfh,43.05
2023-10-09T03:48:00,mfh,42.43
2023-10-09T03:49:00,mfh,42.65
2023-10-09T03:50:00,mfh,42.65
2023-10-09T03:51:00,mfh,42.47
2023-10-09T03:52:00,mfh,42.82
2023-10-09T03:53:00,mfh,42.07
2023-10-09T03:54:00,mfh,41.64
2023-10-09T03:55:00,mfh,42.27
2023-10-09T03:56:00,mfh,43.26
2023-10-09T03:57:00,mfh,42.60
2023-10-09T03:58:00,mfh,42.55
2023-10-09T03:59:00,mfh,42.53
2023-10-09T04:00:00,mfh,42.20
2023-10-09T04:01:00,mfh,41.69
2023-10-09T04:02:00,mfh,42.32
2023-10-09T04:03:00,mfh,41.47
2023-10-09T04:04:00,mfh,42.73
2023-10-09T04:05:00,mfh,42.36
2023-10-09T04:06:00,mfh,42.03
2023-10-09T04:07:00,mfh,42.00
2023-10-09T04:08:00,mfh,42.25
2023-10-09T04:09:00,mfh,42.26
2023-10-09T04:10:00,mfh,42.23
2023-10-09T04:11:00,mfh,41.49
2023-10-09T04:12:00,mfh,41.72
2023-10-09T04:13:00,mfh,41.85
2023-10-09T04:14:00,mfh,42.02
2023-10-09T04:15:00,mfh,42.31
2023-10-09T04:16:00,mfh,42.35
2023-10-09T04:17:00,mfh,42.33
2023-10-09T04:18:00,mfh,42.14
2023-10-09T04:19:00,mfh,41.48
2023-10-09T04:20:00,mfh,41.50
2023-10-09T04:21:00,mfh,41.60
2023-10-09T04:22:00,mfh,41.46
2023-10-09T04:23:00,mfh,42.25
2023-10-09T04:24:00,mfh,42.23
2023-10-09T04:25:00,mfh,42.17
2023-10-09T04:26:00,mfh,42.30
2023-10-09T04:27:00,mfh,42.33
2023-10-09T04:28:00,mfh,42.25
2023-10-09T04:29:00,mfh,41.94
2023-10-09T04:30:00,mfh,41.54
2023-10-09T04:31:00,mfh,41.51
2023-10-09T04:32:00,mfh,41.77
2023-10-09T04:33:00,mfh,42.38
2023-10-09T04:34:00,mfh,42.70
2023-10-09T04:35:00,mfh,42.64
2023-10-09T04:36:00,mfh,42.46
2023-10-09T04:37:00,mfh,42.63
2023-10-09T04:38:00,mfh,42.52
2023-10-09T04:39:00,mfh,41.70
2023-10-09T04:40:00,mfh,41.65
2023-10-09T04:41:00,mfh,42.00
2023-10-09T04:42:00,mfh,42.53
2023-10-09T04:43:00,mfh,42.58
2023-10-09T04:44:00,mfh,43.05
2023-10-09T04:45:00,mfh,42.72
2023-10-09T04:46:00,mfh,44.17
2023-10-09T04:47:00,mfh,43.65
2023-10-09T04:48:00,mfh,42.99
2023-10-09T04:49:00,mfh,43.36
2023-10-09T04:50:00,mfh,42.97
2023-10-09T04:51:00,mfh,44.05
2023-10-09T04:52:00,mfh,42.85
2023-10-09T04:53:00,mfh,42.86
2023-10-09T04:54:00,mfh,43.58
2023-10-09T04:55:00,mfh,43.13
2023-10-09T04:56:00,mfh,43.20
2023-10-09T04:57:00,mfh,43.64
2023-10-09T04:58:00,mfh,42.22
2023-10-09T04:59:00,mfh,42.20
2023-10-09T05:00:00,mfh,42.15
2023-10-09T05:01:00,mfh,59.67
2023-10-09T05:02:00,mfh,64.07
2023-10-09T05:03:00,mfh,63.23
2023-10-09T05:04:00,mfh,63.20
2023-10-09T05:05:00,mfh,63.15
2023-10-09T05:06:00,mfh,63.22
2023-10-09T05:07:00,mfh,63.09
2023-10-09T05:08:00,mfh,61.88
2023-10-09T05:09:00,mfh,61.54
2023-10-09T05:10:00,mfh,61.34
2023-10-09T05:11:00,mfh,61.96
2023-10-09T05:12:00,mfh,62.47
2023-10-09T05:13:00,mfh,63.11
2023-10-09T05:14:00,mfh,64.63
2023-10-09T05:15:00,mfh,64.49
2023-10-09T05:16:00,mfh,64.46
2023-10-09T05:17:00,mfh,62.75
2023-10-09T05:18:00,mfh,62.64
2023-10-09T05:19:00,mfh,62.78
2023-10-09T05:20:00,mfh,63.40
2023-10-09T05:21:00,mfh,63.21
2023-10-09T05:22:00,mfh,63.58
2023-10-09T05:23:00,mfh,63.96
2023-10-09T05:24:00,mfh,63.20
2023-10-09T05:25:00,mfh,63.24
2023-10-09T05:26:00,mfh,62.59
2023-10-09T05:27:00,mfh,63.56
2023-10-09T05:28:00,mfh,63.66
2023-10-09T05:29:00,mfh,64.37
2023-10-09T05:30:00,mfh,64.70
2023-10-09T05:31:00,mfh,64.70
2023-10-09T05:32:00,mfh,64.29
2023-10-09T05:33:00,mfh,63.61
2023-10-09T05:34:00,mfh,64.41
2023-10-09T05:35:00,mfh,63.41
2023-10-09T05:36:00,mfh,62.89
2023-10-09T05:37:00,mfh,62.91
2023-10-09T05:38:00,mfh,62.97
2023-10-09T05:39:00,mfh,64.12
2023-10-09T05:40:00,mfh,63.97
2023-10-09T05:41:00,mfh,63.82
2023-10-09T05:42:00,mfh,63.78
2023-10-09T05:43:00,mfh,63.55
2023-10-09T05:44:00,mfh,63.56
2023-10-09T05:45:00,mfh,63.07
2023-10-09T05:46:00,mfh,63.18
2023-10-09T05:47:00,mfh,63.03
2023-10-09T05:48:00,mfh,63.70
2023-10-09T05:49:00,mfh,63.70
2023-10-09T05:50:00,mfh,63.61
2023-10-09T05:51:00,mfh,64.54
2023-10-09T05:52:00,mfh,63.96
2023-10-09T05:53:00,mfh,64.36
2023-10-09T05:54:00,mfh,63.20
2023-10-09T05:55:00,mfh,62.82
2023-10-09T05:56:00,mfh,62.97
2023-10-09T05:57:00,mfh,64.18
2023-10-09T05:58:00,mfh,64.33
2023-10-09T05:59:00,mfh,63.66
2023-10-09T06:00:00,mfh,63.84
2023-10-09T06:01:00,mfh,69.06
2023-10-09T06:02:00,mfh,68.87
2023-10-09T06:03:00,mfh,69.97
2023-10-09T06:04:00,mfh,69.18
2023-10-09T06:05:00,mfh,68.96
2023-10-09T06:06:00,mfh,68.09
2023-10-09T06:07:00,mfh,67.93
2023-10-09T06:08:00,mfh,67.86
2023-10-09T06:09:00,mfh,68.70
2023-10-09T06:10:00,mfh,68.72
2023-10-09T06:11:00,mfh,68.46
2023-10-09T06:12:00,mfh,68.35
2023-10-09T06:13:00,mfh,69.21
2023-10-09T06:14:00,mfh,69.65
2023-10-09T06:15:00,mfh,69.35
2023-10-09T06:16:00,mfh,69.10
2023-10-09T06:17:00,mfh,69.61
2023-10-09T06:18:00,mfh,69.31
2023-10-09T06:19:00,mfh,68.63
2023-10-09T06:20:00,mfh,68.88
2023-10-09T06:21:00,mfh,68.29
2023-10-09T06:22:00,mfh,68.92
2023-10-09T06:23:00,mfh,68.95
2023-10-09T06:24:00,mfh,68.87
2023-10-09T06:25:00,mfh,68.76
2023-10-09T06:26:00,mfh,68.89
2023-10-09T06:27:00,mfh,69.31
2023-10-09T06:28:00,mfh,69.69
2023-10-09T06:29:00,mfh,69.33
2023-10-09T06:30:00,mfh,69.39
2023-10-09T06:31:00,mfh,70.13
2023-10-09T06:32:00,mfh,69.53
2023-10-09T06:33:00,mfh,69.14
2023-10-09T06:34:00,mfh,68.45
2023-10-09T06:35:00,mfh,68.09
2023-10-09T06:36:00,mfh,68.19
2023-10-09T06:37:00,mfh,69.08
2023-10-09T06:38:00,mfh,68.88
2023-10-09T06:39:00,mfh,68.60
2023-10-09T06:40:00,mfh,68.88
2023-10-09T06:41:00,mfh,69.79
2023-10-09T06:42:00,mfh,68.90
2023-10-09T06:43:00,mfh,68.75
2023-10-09T06:44:00,mfh,68.83
2023-10-09T06:45:00,mfh,68.77
2023-10-09T06:46:00,mfh,68.63
2023-10-09T06:47:00,mfh,68.32
2023-10-09T06:48:00,mfh,68.23
2023-10-09T06:49:00,mfh,68.41
2023-10-09T06:50:00,mfh,68.72
2023-10-09T06:51:00,mfh,68.65
2023-10-09T06:52:00,mfh,68.34
2023-10-09T06:53:00,mfh,68.25
2023-10-09T06:54:00,mfh,68.47
2023-10-09T06:55:00,mfh,68.42
2023-10-09T06:56:00,mfh,67.64
2023-10-09T06:57:00,mfh,67.74
2023-10-09T06:58:00,mfh,67.81
2023-10-09T06:59:00,mfh,68.31
2023-10-09T07:00:00,mfh,68.25
2023-10-09T07:01:00,mfh,67.94
2023-10-09T07:02:00,mfh,67.85
2023-10-09T07:03:00,mfh,67.20
2023-10-09T07:04:00,mfh,66.88
2023-10-09T07:05:00,mfh,67.44
2023-10-09T07:06:00,mfh,67.73
2023-10-09T07:07:00,mfh,68.06
2023-10-09T07:08:00,mfh,67.60
2023-10-09T07:09:00,mfh,67.60
2023-10-09T07:10:00,mfh,68.01
2023-10-09T07:11:00,mfh,67.54
2023-10-09T07:12:00,mfh,67.44
2023-10-09T07:13:00,mfh,67.56
2023-10-09T07:14:00,mfh,67.34
2023-10-09T07:15:00,mfh,67.30
2023-10-09T07:16:00,mfh,66.66
2023-10-09T07:17:00,mfh,66.81
2023-10-09T07:18:00,mfh,66.80
2023-10-09T07:19:00,mfh,67.28
2023-10-09T07:20:00,mfh,67.52
2023-10-09T07:21:00,mfh,67.58
2023-10-09T07:22:00,mfh,67.66
2023-10-09T07:23:00,mfh,67.74
2023-10-09T07:24:00,mfh,67.62
2023-10-09T07:25:00,mfh,67.32
2023-10-09T07:26:00,mfh,68.20
2023-10-09T07:27:00,mfh,68.78
2023-10-09T07:28:00,mfh,68.59
2023-10-09T07:29:00,mfh,68.11
2023-10-09T07:30:00,mfh,68.00
2023-10-09T07:31:00,mfh,68.20
2023-10-09T07:32:00,mfh,67.63
2023-10-09T07:33:00,mfh,67.96
2023-10-09T07:34:00,mfh,68.35
2023-10-09T07:35:00,mfh,68.36
2023-10-09T07:36:00,mfh,68.21
2023-10-09T07:37:00,mfh,68.47
2023-10-09T07:38:00,mfh,68.56
2023-10-09T07:39:00,mfh,68.79
2023-10-09T07:40:00,mfh,68.42
2023-10-09T07:41:00,mfh,68.80
2023-10-09T07:42:00,mfh,68.69
2023-10-09T07:43:00,mfh,68.43
2023-10-09T07:44:00,mfh,68.52
2023-10-09T07:45:00,mfh,68.89
2023-10-09T07:46:00,mfh,68.15
2023-10-09T07:47:00,mfh,68.05
2023-10-09T07:48:00,mfh,68.76
2023-10-09T07:49:00,mfh,69.81
2023-10-09T07:50:00,mfh,69.52
2023-10-09T07:51:00,mfh,68.84
2023-10-09T07:52:00,mfh,69.06
2023-10-09T07:53:00,mfh,69.06
2023-10-09T07:54:00,mfh,68.71
2023-10-09T07:55:00,mfh,70.31
2023-10-09T07:56:00,mfh,69.90
2023-10-09T07:57:00,mfh,69.34
2023-10-09T07:58:00,mfh,69.36
2023-10-09T07:59:00,mfh,69.04
2023-10-09T08:00:00,mfh,69.10
2023-10-09T08:01:00,mfh,68.33
2023-10-09T08:02:00,mfh,76.07
2023-10-09T08:03:00,mfh,76.53
2023-10-09T08:04:00,mfh,76.61
2023-10-09T08:05:00,mfh,77.01
2023-10-09T08:06:00,mfh,76.40
2023-10-09T08:07:00,mfh,76.54
2023-10-09T08:08:00,mfh,79.96
2023-10-09T08:09:00,mfh,79.92
2023-10-09T08:10:00,mfh,80.04
2023-10-09T08:11:00,mfh,79.90
2023-10-09T08:12:00,mfh,79.90
2023-10-09T08:13:00,mfh,79.80
2023-10-09T08:14:00,mfh,79.53
2023-10-09T08:15:00,mfh,79.54
2023-10-09T08:16:00,mfh,79.51
2023-10-09T08:17:00,mfh,79.81
2023-10-09T08:18:00,mfh,79.67
2023-10-09T08:19:00,mfh,79.95
2023-10-09T08:20:00,mfh,79.99
2023-10-09T08:21:00,mfh,79.82
2023-10-09T08:22:00,mfh,79.60
2023-10-09T08:23:00,mfh,79.65
2023-10-09T08:24:00,mfh,79.71
2023-10-09T08:25:00,mfh,79.67
2023-10-09T08:26:00,mfh,79.71
2023-10-09T08:27:00,mfh,79.75
2023-10-09T08:28:00,mfh,79.45
2023-10-09T08:29:00,mfh,79.39
2023-10-09T08:30:00,mfh,79.50
2023-10-09T08:31:00,mfh,79.71
2023-10-09T08:32:00,mfh,79.72
2023-10-09T08:33:00,mfh,79.91
2023-10-09T08:34:00,mfh,80.40
2023-10-09T08:35:00,mfh,79.88
2023-10-09T08:36:00,mfh,79.88
2023-10-09T08:37:00,mfh,79.96
2023-10-09T08:38:00,mfh,80.75
2023-10-09T08:39:00,mfh,79.92
2023-10-09T08:40:00,mfh,79.92
2023-10-09T08:41:00,mfh,79.55
2023-10-09T08:42:00,mfh,79.42
2023-10-09T08:43:00,mfh,79.40
2023-10-09T08:44:00,mfh,79.66
2023-10-09T08:45:00,mfh,79.85
2023-10-09T08:46:00,mfh,79.91
2023-10-09T08:47:00,mfh,80.09
2023-10-09T08:48:00,mfh,79.98
2023-10-09T08:49:00,mfh,80.03
2023-10-09T08:50:00,mfh,80.08
2023-10-09T08:51:00,mfh,80.20
2023-10-09T08:52:00,mfh,80.04
2023-10-09T08:53:00,mfh,79.75
2023-10-09T08:54:00,mfh,79.70
2023-10-09T08:55:00,mfh,79.47
2023-10-09T08:56:00,mfh,79.97
2023-10-09T08:57:00,mfh,79.90
2023-10-09T08:58:00,mfh,80.06
2023-10-09T08:59:00,mfh,80.00
2023-10-09T09:00:00,mfh,80.49
2023-10-09T09:01:00,mfh,79.96
2023-10-09T09:02:00,mfh,80.05
2023-10-09T09:03:00,mfh,79.11
2023-10-09T09:04:00,mfh,79.21
2023-10-09T09:05:00,mfh,79.14
2023-10-09T09:06:00,mfh,79.21
2023-10-09T09:07:00,mfh,78.84
2023-10-09T09:08:00,mfh,78.92
2023-10-09T09:09:00,mfh,79.24
2023-10-09T09:10:00,mfh,79.22
2023-10-09T09:11:00,mfh,79.41
2023-10-09T09:12:00,mfh,79.30
2023-10-09T09:13:00,mfh,82.19
2023-10-09T09:14:00,mfh,82.47
2023-10-09T09:15:00,mfh,82.44
2023-10-09T09:16:00,mfh,82.48
2023-10-09T09:17:00,mfh,79.58
2023-10-09T09:18:00,mfh,79.12
2023-10-09T09:19:00,mfh,78.96
2023-10-09T09:20:00,mfh,79.22
2023-10-09T09:21:00,mfh,79.42
2023-10-09T09:22:00,mfh,79.48
2023-10-09T09:23:00,mfh,79.41
2023-10-09T09:24:00,mfh,79.68
2023-10-09T09:25:00,mfh,79.74
2023-10-09T09:26:00,mfh,79.86
2023-10-09T09:27:00,mfh,79.82
2023-10-09T09:28:00,mfh,79.76
2023-10-09T09:29:00,mfh,80.06
2023-10-09T09:30:00,mfh,79.79
2023-10-09T09:31:00,mfh,79.83
2023-10-09T09:32:00,mfh,79.85
2023-10-09T09:33:00,mfh,77.90
2023-10-09T09:34:00,mfh,74.28
2023-10-09T09:35:00,mfh,74.67
2023-10-09T09:36:00,mfh,74.54
2023-10-09T09:37:00,mfh,74.53
2023-10-09T09:38:00,mfh,78.12
2023-10-09T09:39:00,mfh,77.13
2023-10-09T09:40:00,mfh,77.37
2023-10-09T09:41:00,mfh,77.44
2023-10-09T09:42:00,mfh,77.35
2023-10-09T09:43:00,mfh,77.38
2023-10-09T09:44:00,mfh,76.92
2023-10-09T09:45:00,mfh,76.83
2023-10-09T09:46:00,mfh,76.77
2023-10-09T09:47:00,mfh,77.27
2023-10-09T09:48:00,mfh,77.21
2023-10-09T09:49:00,mfh,77.49
2023-10-09T09:50:00,mfh,77.47
2023-10-09T09:51:00,mfh,77.40
2023-10-09T09:52:00,mfh,77.37
2023-10-09T09:53:00,mfh,77.25
2023-10-09T09:54:00,mfh,77.32
2023-10-09T09:55:00,mfh,77.78
2023-10-09T09:56:00,mfh,77.35
2023-10-09T09:57:00,mfh,76.62
2023-10-09T09:58:00,mfh,76.75
2023-10-09T09:59:00,mfh,77.03
2023-10-09T10:00:00,mfh,77.12
2023-10-09T10:01:00,mfh,77.25
2023-10-09T10:02:00,mfh,77.36
2023-10-09T10:03:00,mfh,77.99
2023-10-09T10:04:00,mfh,78.84
2023-10-09T10:05:00,mfh,78.06
2023-10-09T10:06:00,mfh,77.83
2023-10-09T10:07:00,mfh,77.73
2023-10-09T10:08:00,mfh,79.21
2023-10-09T10:09:00,mfh,81.78
2023-10-09T10:10:00,mfh,81.70
2023-10-09T10:11:00,mfh,82.43
2023-10-09T10:12:00,mfh,82.10
2023-10-09T10:13:00,mfh,82.41
2023-10-09T10:14:00,mfh,82.53
2023-10-09T10:15:00,mfh,82.71
2023-10-09T10:16:00,mfh,82.63
2023-10-09T10:17:00,mfh,82.61
2023-10-09T10:18:00,mfh,82.83
2023-10-09T10:19:00,mfh,82.69
2023-10-09T10:20:00,mfh,82.31
2023-10-09T10:21:00,mfh,81.81
2023-10-09T10:22:00,mfh,81.77
2023-10-09T10:23:00,mfh,81.78
2023-10-09T10:24:00,mfh,82.62
2023-10-09T10:25:00,mfh,82.09
2023-10-09T10:26:00,mfh,81.97
2023-10-09T10:27:00,mfh,82.15
2023-10-09T10:28:00,mfh,82.01
2023-10-09T10:29:00,mfh,82.46
2023-10-09T10:30:00,mfh,82.77
2023-10-09T10:31:00,mfh,82.75
2023-10-09T10:32:00,mfh,82.63
2023-10-09T10:33:00,mfh,82.61
2023-10-09T10:34:00,mfh,82.39
2023-10-09T10:35:00,mfh,82.74
2023-10-09T10:36:00,mfh,82.54
2023-10-09T10:37:00,mfh,80.70
2023-10-09T10:38:00,mfh,80.97
2023-10-09T10:39:00,mfh,80.93
2023-10-09T10:40:00,mfh,82.48
2023-10-09T10:41:00,mfh,82.62
2023-10-09T10:42:00,mfh,82.55
2023-10-09T10:43:00,mfh,82.10
2023-10-09T10:44:00,mfh,82.16
2023-10-09T10:45:00,mfh,82.81
2023-10-09T10:46:00,mfh,82.04
2023-10-09T10:47:00,mfh,82.22
2023-10-09T10:48:00,mfh,82.13
2023-10-09T10:49:00,mfh,82.44
2023-10-09T10:50:00,mfh,82.68
2023-10-09T10:51:00,mfh,83.15
2023-10-09T10:52:00,mfh,82.86
2023-10-09T10:53:00,mfh,82.72
2023-10-09T10:54:00,mfh,83.44
2023-10-09T10:55:00,mfh,83.24
2023-10-09T10:56:00,mfh,82.61
2023-10-09T10:57:00,mfh,83.05
2023-10-09T10:58:00,mfh,82.36
2023-10-09T10:59:00,mfh,82.63
2023-10-09T11:00:00,mfh,83.70
2023-10-09T11:01:00,mfh,81.54
2023-10-09T11:02:00,mfh,81.79
2023-10-09T11:03:00,mfh,81.82
2023-10-09T11:04:00,mfh,78.17
2023-10-09T11:05:00,mfh,81.56
2023-10-09T11:06:00,mfh,82.55
2023-10-09T11:07:00,mfh,81.64
2023-10-09T11:08:00,mfh,81.68
2023-10-09T11:09:00,mfh,81.52
2023-10-09T11:10:00,mfh,81.57
2023-10-09T11:11:00,mfh,81.17
2023-10-09T11:12:00,mfh,81.17
2023-10-09T11:13:00,mfh,81.02
2023-10-09T11:14:00,mfh,81.52
2023-10-09T11:15:00,mfh,81.52
2023-10-09T11:16:00,mfh,81.44
2023-10-09T11:17:00,mfh,82.26
2023-10-09T11:18:00,mfh,81.88
2023-10-09T11:19:00,mfh,81.71
2023-10-09T11:20:00,mfh,81.75
2023-10-09T11:21:00,mfh,82.11
2023-10-09T11:22:00,mfh,81.90
2023-10-09T11:23:00,mfh,81.80
2023-10-09T11:24:00,mfh,81.20
2023-10-09T11:25:00,mfh,80.27
2023-10-09T11:26:00,mfh,80.92
2023-10-09T11:27:00,mfh,81.08
2023-10-09T11:28:00,mfh,80.75
2023-10-09T11:29:00,mfh,80.80
2023-10-09T11:30:00,mfh,80.97
2023-10-09T11:31:00,mfh,80.78
2023-10-09T11:32:00,mfh,81.15
2023-10-09T11:33:00,mfh,80.89
2023-10-09T11:34:00,mfh,80.75
2023-10-09T11:35:00,mfh,80.92
2023-10-09T11:36:00,mfh,80.46
2023-10-09T11:37:00,mfh,80.51
2023-10-09T11:38:00,mfh,80.62
2023-10-09T11:39:00,mfh,81.22
2023-10-09T11:40:00,mfh,81.19
2023-10-09T11:41:00,mfh,81.01
2023-10-09T11:42:00,mfh,81.04
2023-10-09T11:43:00,mfh,81.13
2023-10-09T11:44:00,mfh,81.14
2023-10-09T11:45:00,mfh,81.24
2023-10-09T11:46:00,mfh,81.23
2023-10-09T11:47:00,mfh,81.05
2023-10-09T11:48:00,mfh,80.59
2023-10-09T11:49:00,mfh,80.65
2023-10-09T11:50:00,mfh,81.08
2023-10-09T11:51:00,mfh,77.74
2023-10-09T11:52:00,mfh,77.69
2023-10-09T11:53:00,mfh,79.62
2023-10-09T11:54:00,mfh,78.97
2023-10-09T11:55:00,mfh,78.88
2023-10-09T11:56:00,mfh,79.05
2023-10-09T11:57:00,mfh,78.89
2023-10-09T11:58:00,mfh,82.26
2023-10-09T11:59:00,mfh,82.11
2023-10-09T12:00:00,mfh,82.25
2023-10-09T12:01:00,mfh,81.97
2023-10-09T12:02:00,mfh,81.80
2023-10-09T12:03:00,mfh,81.95
2023-10-09T12:04:00,mfh,82.11
2023-10-09T12:05:00,mfh,81.98
2023-10-09T12:06:00,mfh,82.15
2023-10-09T12:07:00,mfh,81.85
2023-10-09T12:08:00,mfh,82.56
2023-10-09T12:09:00,mfh,81.91
2023-10-09T12:10:00,mfh,82.84
2023-10-09T12:11:00,mfh,82.66
2023-10-09T12:12:00,mfh,82.24
2023-10-09T12:13:00,mfh,82.01
2023-10-09T12:14:00,mfh,82.15
2023-10-09T12:15:00,mfh,82.65
2023-10-09T12:16:00,mfh,82.38
2023-10-09T12:17:00,mfh,82.64
2023-10-09T12:18:00,mfh,82.31
2023-10-09T12:19:00,mfh,82.14
2023-10-09T12:20:00,mfh,82.36
2023-10-09T12:21:00,mfh,82.50
2023-10-09T12:22:00,mfh,82.24
2023-10-09T12:23:00,mfh,82.28
2023-10-09T12:24:00,mfh,82.29
2023-10-09T12:25:00,mfh,82.52
2023-10-09T12:26:00,mfh,82.27
2023-10-09T12:27:00,mfh,81.87
2023-10-09T12:28:00,mfh,81.86
2023-10-09T12:29:00,mfh,82.34
2023-10-09T12:30:00,mfh,82.52
2023-10-09T12:31:00,mfh,82.34
2023-10-09T12:32:00,mfh,82.57
2023-10-09T12:33:00,mfh,82.25
2023-10-09T12:34:00,mfh,81.12
2023-10-09T12:35:00,mfh,81.28
2023-10-09T12:36:00,mfh,81.18
2023-10-09T12:37:00,mfh,81.08
2023-10-09T12:38:00,mfh,81.77
2023-10-09T12:39:00,mfh,80.09
2023-10-09T12:40:00,mfh,79.99
2023-10-09T12:41:00,mfh,81.27
2023-10-09T12:42:00,mfh,80.79
2023-10-09T12:43:00,mfh,80.84
2023-10-09T12:44:00,mfh,80.86
2023-10-09T12:45:00,mfh,80.93
2023-10-09T12:46:00,mfh,75.18
2023-10-09T12:47:00,mfh,76.55
2023-10-09T12:48:00,mfh,76.44
2023-10-09T12:49:00,mfh,80.27
2023-10-09T12:50:00,mfh,80.28
2023-10-09T12:51:00,mfh,79.64
2023-10-09T12:52:00,mfh,79.28
2023-10-09T12:53:00,mfh,79.27
2023-10-09T12:54:00,mfh,79.65
2023-10-09T12:55:00,mfh,80.31
2023-10-09T12:56:00,mfh,79.70
2023-10-09T12:57:00,mfh,79.87
2023-10-09T12:58:00,mfh,79.79
2023-10-09T12:59:00,mfh,79.71
2023-10-09T13:00:00,mfh,79.76
2023-10-09T13:01:00,mfh,79.95
2023-10-09T13:02:00,mfh,79.31
2023-10-09T13:03:00,mfh,79.37
2023-10-09T13:04:00,mfh,79.36
2023-10-09T13:05:00,mfh,80.61
2023-10-09T13:06:00,mfh,79.98
2023-10-09T13:07:00,mfh,79.90
2023-10-09T13:08:00,mfh,79.78
2023-10-09T13:09:00,mfh,79.87
2023-10-09T13:10:00,mfh,79.94
2023-10-09T13:11:00,mfh,80.40
2023-10-09T13:12:00,mfh,79.76
2023-10-09T13:13:00,mfh,78.91
2023-10-09T13:14:00,mfh,78.98
2023-10-09T13:15:00,mfh,78.52
2023-10-09T13:16:00,mfh,78.64
2023-10-09T13:17:00,mfh,79.09
2023-10-09T13:18:00,mfh,79.09